| time (UTC) | temp C | wind direction | speed KPH | gust KPH | rain 1hr cm | rain 24hr cm | rain mn cm | humidity % | barometer mb |
| 20260504081552 | 5 | 136 | 1.6 | 9.7 | 0.00 | 0.00 | 0.00 | 81 | 1009.9 |
| 20260504044528 | 5 | 134 | 3.2 | 19.3 | 0.00 | 0.00 | 0.00 | 73 | 1010.5 |
| 20260504043028 | 5 | 239 | 6.4 | 24.1 | 0.00 | 0.00 | 0.00 | 71 | 1010.5 |
| 20260504041523 | 5 | 195 | 4.8 | 17.7 | 0.00 | 0.00 | 0.00 | 69 | 1010.6 |
| 20260504040020 | 5 | 141 | 3.2 | 14.5 | 0.00 | 0.00 | 0.00 | 64 | 1010.6 |
| 20260504034519 | 5 | 195 | 0.0 | 16.1 | 0.00 | 0.00 | 0.00 | 60 | 1010.6 |
| 20260504033019 | 5 | 205 | 4.8 | 20.9 | 0.00 | 0.00 | 0.00 | 56 | 1010.7 |
| 20260504031518 | 5 | 84 | 3.2 | 11.3 | 0.00 | 0.00 | 0.00 | 53 | 1010.5 |
| 20260504030018 | 5 | 137 | 3.2 | 11.3 | 0.00 | 0.00 | 0.00 | 53 | 1010.7 |
| 20260504024516 | 5 | 157 | 0.0 | 6.4 | 0.00 | 0.00 | 0.00 | 52 | 1010.7 |
| 20260504023016 | 5 | 146 | 0.0 | 6.4 | 0.00 | 0.00 | 0.00 | 51 | 1010.8 |
| 20260504021515 | 5 | 242 | 1.6 | 8.0 | 0.00 | 0.00 | 0.00 | 50 | 1010.8 |
| 20260504020014 | 5 | 250 | 0.0 | 8.0 | 0.00 | 0.00 | 0.00 | 50 | 1010.8 |
| 20260504014514 | 5 | 269 | 0.0 | 9.7 | 0.00 | 0.00 | 0.00 | 50 | 1010.7 |
| 20260504013019 | 4 | 274 | 0.0 | 3.2 | 0.00 | 0.00 | 0.00 | 49 | 1010.6 |
| 20260504011514 | 5 | 136 | 0.0 | 6.4 | 0.00 | 0.00 | 0.00 | 50 | 1010.4 |
| 20260504010013 | 4 | 56 | 0.0 | 3.2 | 0.00 | 0.00 | 0.00 | 51 | 1010.3 |
| 20260504004531 | 4 | 286 | 0.0 | 3.2 | 0.00 | 0.00 | 0.00 | 52 | 1010.0 |
| 20260504003011 | 5 | 259 | 0.0 | 3.2 | 0.00 | 0.00 | 0.00 | 51 | 1009.9 |
| 20260504001526 | 5 | 271 | 0.0 | 1.6 | 0.00 | 0.00 | 0.00 | 51 | 1009.6 |
| 20260504000009 | 5 | 129 | 0.0 | 3.2 | 0.00 | 0.00 | 0.00 | 51 | 1009.4 |
| 20260503234516 | 5 | 249 | 0.0 | 1.6 | 0.00 | 0.00 | 0.00 | 49 | 1009.3 |
| 20260503233009 | 6 | 274 | 0.0 | 3.2 | 0.00 | 0.00 | 0.00 | 49 | 1009.2 |
| 20260503231508 | 6 | 236 | 0.0 | 9.7 | 0.00 | 0.00 | 0.00 | 47 | 1009.1 |
| 20260503230010 | 6 | 39 | 0.0 | 11.3 | 0.00 | 0.00 | 0.00 | 48 | 1009.1 |
| 20260503224507 | 6 | 222 | 0.0 | 6.4 | 0.00 | 0.00 | 0.00 | 48 | 1009.0 |
| 20260503223009 | 6 | 239 | 0.0 | 12.9 | 0.00 | 0.00 | 0.00 | 48 | 1009.0 |
| 20260503221505 | 7 | 210 | 3.2 | 11.3 | 0.00 | 0.00 | 0.00 | 48 | 1008.9 |
| 20260503220018 | 6 | 240 | 3.2 | 12.9 | 0.00 | 0.00 | 0.00 | 49 | 1009.0 |
| 20260503214509 | 6 | 269 | 4.8 | 16.1 | 0.00 | 0.00 | 0.00 | 48 | 1008.9 |
| 20260503213003 | 6 | 207 | 1.6 | 16.1 | 0.00 | 0.00 | 0.00 | 50 | 1008.8 |
| 20260503211603 | 7 | 108 | 3.2 | 11.3 | 0.00 | 0.00 | 0.00 | 48 | 1008.8 |
| 20260503210059 | 6 | 226 | 0.0 | 8.0 | 0.00 | 0.00 | 0.00 | 53 | 1008.7 |
| 20260503204558 | 6 | 113 | 0.0 | 4.8 | 0.00 | 0.00 | 0.00 | 53 | 1008.8 |
| 20260503203058 | 5 | 120 | 1.6 | 11.3 | 0.00 | 0.00 | 0.00 | 52 | 1008.7 |
| 20260503201557 | 6 | 224 | 4.8 | 11.3 | 0.00 | 0.00 | 0.00 | 50 | 1008.8 |
| 20260503200056 | 6 | 208 | 3.2 | 12.9 | 0.00 | 0.00 | 0.00 | 50 | 1008.7 |
| 20260503194614 | 5 | 148 | 1.6 | 16.1 | 0.00 | 0.00 | 0.00 | 54 | 1009.0 |
| 20260503193053 | 6 | 283 | 3.2 | 16.1 | 0.00 | 0.00 | 0.00 | 51 | 1009.0 |
| 20260503191557 | 6 | 243 | 1.6 | 11.3 | 0.00 | 0.00 | 0.00 | 53 | 1009.0 |
| 20260503190150 | 5 | 288 | 4.8 | 14.5 | 0.00 | 0.00 | 0.00 | 52 | 1009.2 |
| 20260503184549 | 5 | 260 | 0.0 | 12.9 | 0.00 | 0.00 | 0.00 | 53 | 1009.1 |
| 20260503183055 | 5 | 215 | 6.4 | 16.1 | 0.00 | 0.00 | 0.00 | 55 | 1009.0 |
| 20260503181559 | 4 | 240 | 3.2 | 14.5 | 0.00 | 0.00 | 0.00 | 55 | 1009.1 |
| 20260503180052 | 5 | 252 | 1.6 | 17.7 | 0.00 | 0.00 | 0.00 | 54 | 1009.1 |
| 20260503174553 | 5 | 259 | 3.2 | 17.7 | 0.00 | 0.00 | 0.00 | 56 | 1009.1 |
| 20260503173047 | 5 | 166 | 3.2 | 16.1 | 0.00 | 0.00 | 0.00 | 54 | 1008.9 |
| 20260503171547 | 5 | 245 | 3.2 | 20.9 | 0.00 | 0.00 | 0.00 | 56 | 1008.9 |